User: anonymous   Login
Location: Mississauga
(43.5802°N, 79.6166°W)
Time: 11:24:52
(UTC-04:00)
Language:

Cosmos 1437 Rocket - Orbit

View from above orbital plane
View from above orbital plane
View from above satellite
View from above satellite

Ground track
Ground track

The orbit data is extracted from the following two-line orbital elements,

1 13771U 83003B   16208.56372849  .00000853  00000-0  50741-4 0  9991
2 13771  81.1598  18.3501 0041800   7.9966 352.1916 15.09448493824661
Epoch (UTC): 26 July 2016 13:31:46
Eccentricity: 0.0041800
inclination: 81.1598°
perigee height: 509 km
apogee height: 567 km
right ascension of ascending node: 18.3501°
argument of perigee: 7.9966°
revolutions per day: 15.09448493
mean anomaly at epoch: 352.1916°
orbit number at epoch: 82466

The dashed part of the orbit path shows where the satellite is in the earth's shadow,  

DLR